When you browse on this site, cookies collect data to enhance your experience and personalize the content and advertising you see.
Visit our Privacy Policy to learn more. By continuing to use the site, you agree to this use of cookies and data.
  • En España
  • Lista de países
  • Para 7 días
  • Temperatura del agua
  • El tiempo en el mapa
  • Informadores
  • user-avatar
    Iniciar sesión

    Tiempo cada hora Djaipur

    Hoy, 21 Septiembre, Sábado

    Tiempo Temperatura Precipitaciones Viento Presión Humedad
    00:00 +28°C° 0 mm 2 mps 722 mmHg 69%
    01:00 +28°C° 0 mm 2 mps 721 mmHg 72%
    02:00 +27°C° 0 mm 2 mps 721 mmHg 75%
    03:00 +27°C° 0 mm 2 mps 721 mmHg 77%
    04:00 +27°C° 0 mm 2 mps 721 mmHg 79%
    05:00 +27°C° 0 mm 1 mps 721 mmHg 83%
    06:00 +27°C° 0 mm 1 mps 722 mmHg 79%
    07:00 +28°C° 0 mm 1 mps 722 mmHg 75%
    08:00 +29°C° 0 mm 1 mps 723 mmHg 72%
    09:00 +30°C° 0.8 mm 2 mps 722 mmHg 68%
    10:00 +31°C° 0.8 mm 2 mps 722 mmHg 64%
    11:00 +32°C° 0.8 mm 2 mps 722 mmHg 60%
    12:00 +32°C° 2.7 mm 1 mps 721 mmHg 57%
    13:00 +33°C° 2.7 mm 1 mps 721 mmHg 55%
    14:00 +33°C° 2.7 mm 1 mps 720 mmHg 53%
    15:00 +33°C° 0.1 mm 1 mps 720 mmHg 54%
    16:00 +34°C° 0.1 mm 2 mps 720 mmHg 56%
    17:00 +34°C° 0.1 mm 2 mps 720 mmHg 58%
    18:00 +32°C° 0 mm 2 mps 720 mmHg 62%
    19:00 +30°C° 0 mm 2 mps 720 mmHg 67%
    20:00 +29°C° 0 mm 2 mps 721 mmHg 71%
    21:00 +29°C° 0.2 mm 2 mps 721 mmHg 72%
    22:00 +29°C° 0.2 mm 2 mps 721 mmHg 74%
    23:00 +29°C° 0.2 mm 2 mps 721 mmHg 75%

    Mañana, 22 Septiembre, Domingo

    Tiempo Temperatura Precipitaciones Viento Presión Humedad
    00:00 +28°C° 0.9 mm 3 mps 721 mmHg 78%
    01:00 +28°C° 0.9 mm 3 mps 721 mmHg 82%
    02:00 +27°C° 0.9 mm 3 mps 721 mmHg 85%
    03:00 +27°C° 0.2 mm 3 mps 721 mmHg 85%
    04:00 +27°C° 0.2 mm 2 mps 721 mmHg 84%
    05:00 +26°C° 0.2 mm 2 mps 721 mmHg 84%
    06:00 +27°C° 0 mm 1 mps 722 mmHg 80%
    07:00 +27°C° 0 mm 1 mps 722 mmHg 76%
    08:00 +26°C° 0 mm 0 mps 723 mmHg 73%
    09:00 +29°C° 0 mm 1 mps 723 mmHg 67%
    10:00 +31°C° 0 mm 2 mps 723 mmHg 61%
    11:00 +32°C° 0 mm 2 mps 723 mmHg 55%
    12:00 +33°C° 0.1 mm 3 mps 722 mmHg 56%
    13:00 +31°C° 0.1 mm 3 mps 722 mmHg 56%
    14:00 +32°C° 0.1 mm 4 mps 721 mmHg 57%
    15:00 +31°C° 0.3 mm 3 mps 721 mmHg 60%
    16:00 +31°C° 0.3 mm 3 mps 721 mmHg 62%
    17:00 +30°C° 0.3 mm 3 mps 721 mmHg 65%
    18:00 +29°C° 0.1 mm 3 mps 721 mmHg 69%
    19:00 +28°C° 0.1 mm 3 mps 722 mmHg 74%
    20:00 +27°C° 0.1 mm 3 mps 722 mmHg 79%
    21:00 +27°C° 0 mm 3 mps 722 mmHg 79%
    22:00 +27°C° 0 mm 2 mps 722 mmHg 79%
    23:00 +26°C° 0 mm 2 mps 723 mmHg 80%

    Pasado mañana, 23 Septiembre, Lunes

    Tiempo Temperatura Precipitaciones Viento Presión Humedad
    00:00 +26°C° 0 mm 2 mps 722 mmHg 81%
    01:00 +26°C° 0 mm 2 mps 722 mmHg 83%
    02:00 +26°C° 0 mm 3 mps 722 mmHg 84%
    03:00 +26°C° 0 mm 3 mps 722 mmHg 85%
    04:00 +25°C° 0 mm 3 mps 722 mmHg 86%
    05:00 +25°C° 0 mm 3 mps 722 mmHg 87%
    06:00 +26°C° 0 mm 3 mps 722 mmHg 85%
    07:00 +26°C° 0 mm 4 mps 723 mmHg 83%
    08:00 +27°C° 0 mm 4 mps 723 mmHg 81%
    09:00 +28°C° 0 mm 4 mps 723 mmHg 77%
    10:00 +29°C° 0 mm 4 mps 723 mmHg 73%
    11:00 +30°C° 0 mm 4 mps 723 mmHg 69%
    12:00 +30°C° 0 mm 4 mps 723 mmHg 68%
    13:00 +32°C° 0 mm 4 mps 722 mmHg 67%
    14:00 +32°C° 0 mm 4 mps 721 mmHg 66%
    15:00 +30°C° 0 mm 4 mps 721 mmHg 68%
    16:00 +30°C° 0 mm 4 mps 721 mmHg 71%
    17:00 +29°C° 0 mm 4 mps 721 mmHg 73%
    18:00 +28°C° 0 mm 4 mps 721 mmHg 76%
    19:00 +28°C° 0 mm 3 mps 722 mmHg 78%
    20:00 +27°C° 0 mm 3 mps 722 mmHg 80%
    21:00 +27°C° 0 mm 3 mps 722 mmHg 80%
    22:00 +26°C° 0 mm 3 mps 723 mmHg 81%
    23:00 +26°C° 0 mm 3 mps 723 mmHg 81%

    24 Septiembre, Martes

    Tiempo Temperatura Precipitaciones Viento Presión Humedad
    00:00 +26°C° 0 mm 3 mps 723 mmHg 81%
    01:00 +26°C° 0 mm 3 mps 722 mmHg 81%
    02:00 +26°C° 0 mm 2 mps 722 mmHg 82%
    03:00 +26°C° 0 mm 2 mps 722 mmHg 81%
    04:00 +26°C° 0 mm 3 mps 722 mmHg 81%
    05:00 +26°C° 0 mm 3 mps 722 mmHg 81%
    06:00 +26°C° 0 mm 3 mps 723 mmHg 79%
    07:00 +27°C° 0 mm 4 mps 723 mmHg 76%
    08:00 +28°C° 0 mm 5 mps 724 mmHg 74%
    09:00 +30°C° 0 mm 5 mps 724 mmHg 68%
    10:00 +32°C° 0 mm 5 mps 724 mmHg 62%
    11:00 +34°C° 0 mm 5 mps 724 mmHg 57%
    12:00 +34°C° 0.5 mm 4 mps 723 mmHg 55%
    13:00 +35°C° 0.5 mm 4 mps 722 mmHg 52%
    14:00 +35°C° 0.5 mm 4 mps 722 mmHg 50%
    15:00 +34°C° 0.9 mm 3 mps 721 mmHg 54%
    16:00 +34°C° 0.9 mm 3 mps 721 mmHg 57%
    17:00 +33°C° 0.9 mm 3 mps 721 mmHg 60%
    18:00 +31°C° 0.2 mm 3 mps 721 mmHg 64%
    19:00 +30°C° 0.2 mm 3 mps 721 mmHg 69%
    20:00 +29°C° 0.2 mm 3 mps 722 mmHg 73%
    21:00 +29°C° 0.4 mm 2 mps 722 mmHg 75%
    22:00 +28°C° 0.4 mm 2 mps 722 mmHg 76%
    23:00 +28°C° 0.4 mm 2 mps 723 mmHg 78%

    25 Septiembre, Miércoles

    Tiempo Temperatura Precipitaciones Viento Presión Humedad
    00:00 +28°C° 0 mm 2 mps 723 mmHg 79%
    01:00 +28°C° 0 mm 2 mps 722 mmHg 79%
    02:00 +27°C° 0 mm 2 mps 722 mmHg 80%
    03:00 +27°C° 0 mm 2 mps 723 mmHg 80%
    04:00 +27°C° 0 mm 2 mps 723 mmHg 79%
    05:00 +27°C° 0 mm 2 mps 723 mmHg 79%
    06:00 +28°C° 0.1 mm 3 mps 723 mmHg 77%
    07:00 +28°C° 0.1 mm 4 mps 724 mmHg 75%
    08:00 +29°C° 0.1 mm 4 mps 724 mmHg 72%
    09:00 +30°C° 0 mm 4 mps 724 mmHg 66%
    10:00 +33°C° 0 mm 4 mps 725 mmHg 61%
    11:00 +34°C° 0 mm 4 mps 725 mmHg 55%
    12:00 +35°C° 0 mm 4 mps 724 mmHg 53%
    13:00 +35°C° 0 mm 4 mps 723 mmHg 52%
    14:00 +35°C° 0 mm 4 mps 723 mmHg 50%
    15:00 +35°C° 0 mm 4 mps 723 mmHg 53%
    16:00 +34°C° 0 mm 4 mps 723 mmHg 56%
    17:00 +34°C° 0 mm 3 mps 723 mmHg 59%
    18:00 +33°C° 0.1 mm 3 mps 723 mmHg 62%
    19:00 +31°C° 0.1 mm 3 mps 723 mmHg 66%
    20:00 +30°C° 0.1 mm 3 mps 724 mmHg 69%
    21:00 +29°C° 0.2 mm 3 mps 724 mmHg 73%
    22:00 +29°C° 0.2 mm 3 mps 724 mmHg 76%
    23:00 +28°C° 0.2 mm 3 mps 724 mmHg 79%

    26 Septiembre, Jueves

    Tiempo Temperatura Precipitaciones Viento Presión Humedad
    00:00 +28°C° 0 mm 4 mps 724 mmHg 79%
    01:00 +28°C° 0 mm 4 mps 724 mmHg 80%
    02:00 +27°C° 0 mm 4 mps 724 mmHg 80%
    03:00 +27°C° 0 mm 4 mps 724 mmHg 81%
    04:00 +27°C° 0 mm 4 mps 724 mmHg 81%
    05:00 +27°C° 0 mm 4 mps 724 mmHg 82%
    06:00 +27°C° 0 mm 4 mps 724 mmHg 79%
    07:00 +28°C° 0 mm 5 mps 725 mmHg 77%
    08:00 +28°C° 0 mm 5 mps 725 mmHg 75%
    09:00 +29°C° 0.5 mm 6 mps 725 mmHg 74%
    10:00 +29°C° 0.5 mm 6 mps 725 mmHg 73%
    11:00 +30°C° 0.5 mm 7 mps 726 mmHg 72%
    12:00 +29°C° 0.2 mm 7 mps 725 mmHg 73%
    13:00 +29°C° 0.2 mm 6 mps 724 mmHg 74%
    14:00 +29°C° 0.2 mm 5 mps 724 mmHg 75%
    15:00 +28°C° 0.1 mm 5 mps 723 mmHg 76%
    16:00 +28°C° 0.1 mm 4 mps 723 mmHg 78%
    17:00 +28°C° 0.1 mm 4 mps 723 mmHg 79%
    18:00 +27°C° 0 mm 4 mps 723 mmHg 82%
    19:00 +27°C° 0 mm 4 mps 724 mmHg 84%
    20:00 +26°C° 0 mm 3 mps 724 mmHg 87%
    21:00 +26°C° 0 mm 3 mps 724 mmHg 86%
    22:00 +26°C° 0 mm 3 mps 725 mmHg 86%
    23:00 +26°C° 0 mm 3 mps 725 mmHg 85%
    Mostrar más